User: anonymous   Login
Location: NJAA Observatory
(40.6819°N, 74.8979°W)
Time: 01:52:13
(UTC-05:00)
Language:

Cosmos 1461 - Orbit

View from above orbital plane
View from above orbital plane
View from above satellite
View from above satellite

Ground track
Ground track

The orbit data is extracted from the following two-line orbital elements,

1 14064U 83044A   16043.20171130  .00002767  00000-0  24695-3 0  9994
2 14064  65.0037   2.9615 0121302 244.2729 114.5824 14.92628073650042
Epoch (UTC): 12 February 2016 04:50:27
Eccentricity: 0.0121302
inclination: 65.0037°
perigee height: 505 km
apogee height: 674 km
right ascension of ascending node: 2.9615°
argument of perigee: 244.2729°
revolutions per day: 14.92628073
mean anomaly at epoch: 114.5824°
orbit number at epoch: 65004

The dashed part of the orbit path shows where the satellite is in the earth's shadow,  

DLR